STARLINK-32384, 62146

Orbit data source: Space-Track

STARLINK-32384, 62146 is a payload satellite owned by SpaceX/Seattle (US) in LEO that was launched on Sat, 30 Nov 2024 UTC via an FALCON 9 launch vehicle from the Air Force Eastern Test Range (AFETR). Payload-class satellites include a variety of spacecraft equipped with specific instruments for various scientific and technological missions. These include communications satellites like Starlink; space stations such as the ISS; scientific satellites like the Hubble; Earth observation satellites from companies like Planet Labs, Umbra, and HawkEye 360; GPS; miniature CubeSats for education and research; and military/defense satellites.

Loading next visibility...
Identifier
62146, 2024-224H
Orbit
LEO
Country
Flag of USUS
Related business
Manufacturer
SpaceX/Seattle
Mission
Operational Commercial Communications
Bus & Motor
STARLINK V2M, Unknown motor
Mass
730 kg wet, ~700 kg dry
Launch date (UTC)
2024-11-30 (1 year ago)
Launch vehicle
FALCON 9
Launch site
Air Force Eastern Test Range (AFETR)
Object type
Payload
Rocket body
Debris
Shape & HBR
Box + 2 Pan, 17.7 m
Radar Cross Section
33.884 m², Large (>1 m²)

Expand to show TLE details & history
Last TLE update: 18 hours ago

TLE from 18 hours ago
0 STARLINK-32384
1 62146U 24224H   25348.85039921  .00030067  00000-0  10970-2 0  9997
2 62146  42.9985 277.3499 0000965  66.3183 293.7770 15.27602076 59506
Epoch: 2025-12-14T20:24Z
TLE epoch observation values (Epoch: 2025-12-14T20:24:34.491Z)
Latitude
-0.00002°
Longitude
-112.55123°
Altitude
482.491 km
Speed
7.626 km/s
True Right ascension
18h 29m 23s
True Declination
0° 00' 00"
Sunlit
Object was in daylight at epoch
Visualization orbit readout
Latitude
Unknown
Longitude
Unknown
Altitude
Unknown
Speed
Unknown
Apparent Right ascension
Unknown
Apparent Declination
Unknown
Sunlit
N/A
Visualization observer readout
Local Sidereal Time
13:23:49
Azimuth
Unknown
Elevation
Unknown
Doppler factor
Unknown
Orbital elements
Apogee altitude
485.591 km
Perigee altitude
484.266 km
Semi-major axis
6,863.065 km
Eccentricity
0.0001
Inclination
42.9985°
RAAN
277.3499°
Arg. of periapsis
66.3183°
True anomaly
293.76688°
Mean anomaly
293.777°
Eccentric anomaly
293.77194°
Mean motion
3.81738 °/min
Orbital period
94.31 mins
BSTAR
0.001097
Loading maneuver chart data...
Computing Atmospheric mass density...
Loading historical data...
Loading historical data...
Loading historical data...
Loading historical data...
Loading historical data...
Loading historical data...
Loading historical data...

Documentation

Showing up to 5 results
|